Regional Weather Roundup
Issued by NWS

Home | Current Version | Previous Version | Graphics & Text | Print | Product List | Glossary On
Versions: 1 2 3 4 5 6 7 8 9 10 11 12 13 14 15 16 17 18 19 20 21 22 23 24 25 26 27 28 29 30 31 32 33 34 35 36 37 38 39 40 41 42 43 44 45 46 47 48 49 50
000
ASUS43 KMKX 260111
RWRWI

WISCONSIN REGIONAL WEATHER ROUNDUP
NATIONAL WEATHER SERVICE MILWAUKEE/SULLIVAN WI
800 PM CDT FRI JUL 25 2014

NOTE: "FAIR" INDICATES FEW OR NO CLOUDS BELOW 12,000 FEET WITH NO
SIGNIFICANT WEATHER AND/OR OBSTRUCTIONS TO VISIBILITY.

WIZ001-002-006>008-014>016-023>028-260200-
NORTHWEST WISCONSIN

CITY           SKY/WX    TMP DP  RH WIND       PRES   REMARKS
SUPERIOR ARPT  CLOUDY    64  61  88 CALM      29.76F
ASHLAND        CLOUDY    69  64  84 S6        29.80F
HAYWARD        CLOUDY    67  66  97 S6        29.82F
SIREN          CLOUDY    71  67  89 SE6       29.78F
RICE LAKE      CLOUDY    70  65  84 E5        29.83S
LADYSMITH      CLOUDY    69  65  85 SE5       29.85F
EAU CLAIRE     CLOUDY    74  67  78 SE8       29.80S
MENOMONIE      CLOUDY    74  67  80 SE5       29.80S
NEW RICHMOND   CLOUDY    73  68  86 E6        29.79S
OSCEOLA        CLOUDY    74  71  90 E12       29.80F
$$

WIZ003>005-009-010-017-018-260200-
NORTH CENTRAL WISCONSIN

CITY           SKY/WX    TMP DP  RH WIND       PRES   REMARKS
WOODRUFF       CLOUDY    67  63  86 SW7       29.86S
RHINELANDER    CLOUDY    64  62  93 SW7       29.87F
EAGLE RIVER    CLOUDY    65  60  83 SW6       29.85F
LAND O LAKES   CLOUDY    65  63  94 SW5       29.86S FOG
PHILLIPS       CLOUDY    65  63  93 S6        29.85S
TOMAHAWK       CLOUDY    65  62  90 CALM      29.88S
MEDFORD        CLOUDY    66  63  89 SE5       29.87S
MERRILL        CLOUDY    66  63  89 SW3       29.87S
$$

WIZ029-030-035-036-043>047-260200-
CENTRAL WISCONSIN

CITY           SKY/WX    TMP DP  RH WIND       PRES   REMARKS
WAUSAU         CLOUDY    67  62  84 S3        29.85F
MOSINEE        PTCLDY    66  64  94 S7        29.88F
MARSHFIELD     PTCLDY    68  63  84 S8        29.86F
STEVENS POINT  CLOUDY    67  60  79 S5        29.88F
WAUPACA        CLOUDY    71  62  72 S3        29.88S
WAUTOMA        CLOUDY    70  62  75 SW5       29.89S
WISC RAPIDS    CLOUDY    70  62  76 S6        29.89S
CAMP DOUGLAS   CLOUDY    70  65  84 S7        29.88S
$$

WIZ011>013-019>022-031-037>040-048>050-260200-
NORTHEAST WISCONSIN

CITY           SKY/WX    TMP DP  RH WIND       PRES   REMARKS
ANTIGO         CLOUDY    64  61  91 SW5       29.88F
STURGEON BAY   CLOUDY    64  57  77 S8        29.88S
GREEN BAY      CLOUDY    70  61  73 SW6       29.88S
MANITOWOC      CLOUDY    65  59  81 S6        29.89S
APPLETON       MOCLDY    70  59  68 SW8       29.89S
CLINTONVILLE   CLOUDY    68  59  73 SW5       29.87S
OSHKOSH        CLOUDY    71  61  70 SW7       29.88S
$$

WIZ032>034-041-042-053>061-260200-
SOUTHWEST WISCONSIN

CITY           SKY/WX    TMP DP  RH WIND       PRES   REMARKS
LA CROSSE      CLOUDY    75  65  70 SE9       29.82F
SPARTA         CLOUDY    71  62  73 SE7       29.86F
VIROQUA        CLOUDY    68  64  85 SE7       29.88S
BOSCOBEL       CLOUDY    71  63  75 E5        29.87S
PRAIRIE DU CHI CLOUDY    72  63  73 SE8       29.84S
PLATTEVILLE    CLOUDY    68  64  85 SE9       29.89F
$$

WIZ056-057-062-063-064-067-068-260200-
SOUTH CENTRAL WISCONSIN

CITY           SKY/WX    TMP DP  RH WIND       PRES   REMARKS
BARABOO/DELLS  CLOUDY    68  60  75 SW7       29.90R
LONE ROCK      CLOUDY    73  63  70 E5        29.89R
WATERTOWN      CLOUDY    69  62  77 S6        29.89S
MADISON        CLOUDY    70  61  73 S10       29.90S
MIDDLETON      CLOUDY    70  60  71 S10       29.90S
MONROE         CLOUDY    68  61  77 S8        29.91R
JANESVILLE     CLOUDY    72  59  64 S8        29.90F
$$

WIZ051-052-058>065-066-070>072-260200-
SOUTHEAST WISCONSIN

CITY           SKY/WX    TMP DP  RH WIND       PRES   REMARKS
MILWAUKEE      MOCLDY    72  59  63 SW8       29.90S
WAUKESHA       CLOUDY    68  59  73 SW8       29.92S
MILWAUKEE/TIMM CLOUDY    72  57  60 SW8       29.91S
RACINE         CLOUDY    71  60  68 SW6       29.92S
BURLINGTON     CLOUDY    67  59  76 S7        29.92S
KENOSHA        CLOUDY    70  60  70 SW7       29.91S
FOND DU LAC    CLOUDY    70  61  73 SW6       29.90R
SHEBOYGAN      CLOUDY    69  59  70 S7        29.89S
WEST BEND      CLOUDY    70  59  68 SW5       29.90S
JUNEAU         MOCLDY    68  60  74 S6        29.91S
$$

LSZ147-162-260200-
LAKE SUPERIOR

STATION/POSITION TIME  TEMP    WIND        PRES    WAVE
                       AIR SEA DIR/SP/G            HT/PER
                 (UTC) (F)     (DEG/KT/KT) (MB)    (FT/S)
W MID LAKE BUOY  0050   54 50  130/  4/  4 1008.4F   0
PORT WING        0040   71     160/  6/  9 1008.5F
SAXON HARBOR     0000          190/  4/  7 1009.1F
$$

LMZ867-665-643>646-260200-
LAKE MICHIGAN

STATION/POSITION TIME  TEMP    WIND        PRES    WAVE
                       AIR SEA DIR/SP/G            HT/PER
                 (UTC) (F)     (DEG/KT/KT) (MB)    (FT/S)
N MID LAKE BUOY  0050   59 55  200/ 12/ 14 1010.6F   3/ 5
NORTHPORT PIER   0000   65     150/  4/  8 1011.2F
KEWAUNEE LAKESHO 0000   56     180/ 12/ 14 1012.5F
SHEBOYGAN LAKESH 0100   64     180/ 14/ 14 1012.3R
PORT WASHINGTON  0000   65     190/  5/  7 1012.9
ATWATER BUOY     0100   62     180/  8     1013.5F
MILWAUKEE LAKESH 0000   64     140/  7/  9   N/A
S MID LAKE BUOY  0050   65 62  180/ 10/ 10 1013.2F   1
KENOSHA   LAKESH 0100   72     210/  6/  9 1012.5S
$$

TC  - TEMPERATURE IN CELSIUS
VSB - VISIBILITY IN STATUTE MILES
WCI - WIND CHILL INDEX
HX  - HEAT INDEX



USA.gov is the U.S. government's official web portal to all federal, state and local government web resources and services.